STARLINK-32385

Last updated on Tue Oct 08 2024 00:02:04 GMT+0000 (Coordinated Universal Time)

1 61068U 24164U 24281.58334491 -.01478173 00000+0 -33995-1 0 9994 2 61068 53.1595 347.1309 0001228 70.0015 161.0813 15.45056079 5090
UTC large
Height (km)
Speed (km/s)
/
Latitude / Longitude
Inclination (degrees)
Orbital Period (minutes)
Azimuth
Elevation
Range (km)
Doppler Factor

Next 0 passes for location: London (51.5072 / 0.1276)

Sorry there are no passes over London.